Maryland Science Center, MD

4:57 AM EST on December 11, 2017 (GMT -0500)
Maryland Science Center

Weather History for KDMH - February, 2014

Change the Weather History Date:

Monday, February 3, 2014

  Actual Average Record
Temperature  
Mean Temperature 39 °F 37 °F  
Max Temperature 46 °F 44 °F 62 °F (2006)
Min Temperature 32 °F 30 °F 21 °F (2015)
Degree Days  
Heating Degree Days 26 28  
Month to date heating degree days 74 85  
Since 1 July heating degree days 2318 2433  
Cooling Degree Days 0 0  
Month to date cooling degree days 0 0  
Year to date cooling degree days 0 0  
Moisture  
Dew Point 33 °F    
Average Humidity 81    
Maximum Humidity 92    
Minimum Humidity 69    
Precipitation  
Precipitation 1.22 in 0.09 in 1.22 in (2014)
Month to date precipitation 1.22 0.28  
Year to date precipitation 3.43 3.20  
Sea Level Pressure  
Sea Level Pressure 30.15 in    
Wind  
Wind Speed - (North)    
Max Wind Speed -    
Max Gust Speed -    
T = Trace of Precipitation, MM = Missing Value Source: NWS Daily Summary

Daily Weather History Graph

Daily Weather History Graph

Search for Another Location

Airport or City:

Trip Planner

Search our weather history database for the weather conditions in past years. The results will help you decide how hot, cold, wet, or windy it might be!

Date:

Astronomy

Feb. 03, 2014 Rise Set
Actual Time 7:11 AM EST 5:29 PM EST
Civil Twilight 6:43 AM EST 5:57 PM EST
Nautical Twilight 6:11 AM EST 6:29 PM EST
Astronomical Twilight 5:40 AM EST 7:01 PM EST
Moon 9:14 AM EST (2/3) 10:15 PM EST (2/3)
Length of Visible Light 11h 14m
Length of Day
10h 17m
Waxing Crescent, 19% of the Moon is Illuminated
Feb 3
Waxing Crescent
Feb 6
First Quarter
Feb 14
Full
Feb 22
Last Quarter
Mar 1
New

Hourly Weather History & Observations

Time (EST) Temp. Dew Point Humidity Pressure Visibility Wind Dir Wind Speed Gust Speed Precip Events Conditions
12:54 AM 45.0 °F 37.9 °F 76% 30.07 in - North - - N/A   Unknown
1:54 AM 44.1 °F 37.9 °F 79% 30.08 in - North - - 0.01 in   Unknown
2:54 AM 42.1 °F 39.0 °F 89% 30.11 in - North - - 0.07 in   Unknown
3:54 AM 41.0 °F 37.9 °F 89% 30.06 in - North - - 0.07 in   Unknown
4:54 AM 39.9 °F 37.0 °F 89% 30.11 in - North - - 0.10 in   Unknown
5:54 AM 39.0 °F 36.0 °F 89% 30.07 in - North - - 0.14 in   Unknown
6:54 AM 37.9 °F 36.0 °F 93% 30.06 in - North - - 0.18 in   Unknown
7:54 AM 37.9 °F 35.1 °F 89% 30.06 in - North - - 0.16 in   Unknown
8:54 AM 37.0 °F 34.0 °F 89% 30.06 in - North - - 0.17 in   Unknown
9:54 AM 37.0 °F 34.0 °F 89% 30.07 in - North - - 0.15 in   Unknown
10:54 AM 37.0 °F 33.1 °F 86% 30.05 in - North - - 0.06 in   Unknown
11:54 AM 37.0 °F 33.1 °F 86% 30.08 in - North - - 0.04 in   Unknown
12:54 PM 35.1 °F 32.0 °F 89% 30.07 in - North - - 0.05 in   Unknown
1:54 PM 36.0 °F 32.0 °F 86% 30.09 in - North - - 0.02 in   Unknown
2:54 PM 37.0 °F 32.0 °F 82% 30.12 in - North - - N/A   Unknown
3:54 PM 37.0 °F 32.0 °F 82% 30.15 in - North - - N/A   Unknown
4:54 PM 37.9 °F 32.0 °F 79% 30.19 in - North - - N/A   Unknown
5:54 PM 37.0 °F 30.9 °F 79% 30.22 in - North - - N/A   Unknown
6:54 PM 36.0 °F 30.0 °F 79% 30.24 in - North - - N/A   Unknown
7:54 PM 36.0 °F 30.0 °F 79% 30.26 in - North - - N/A   Unknown
8:54 PM 35.1 °F 28.0 °F 76% 30.31 in - North - - N/A   Unknown
9:54 PM 34.0 °F 26.1 °F 73% 30.31 in - North - - N/A   Unknown
10:54 PM 33.1 °F 25.0 °F 72% 30.33 in - North - - N/A   Unknown
11:54 PM 32.0 °F 23.0 °F 69% 30.33 in - North - - N/A   Unknown